Overview Statistics Trail Chart Weather Telemetry Raw packets
 

This is the latest recevied weather packets stored in our database for station/object SV3AQT-13. If no packets are shown the sender has not sent any weather packets the latest 10 day(s).

<< 3 4 5 6 7 8 9 >>
Time Temp. Humidity Pressure Rain* Wind** Luminosity Snow
1788593343 28.33° C 62% 1019.9 hPa 0 mm 0 m/s - -
1788593162 28.89° C 62% 1019.9 hPa 0 mm 0.89 m/s, 76° - -
1788592982 28.89° C 60% 1019.9 hPa 0 mm 0.89 m/s, 74° - -
1788592819 28.89° C 61% 1019.9 hPa 0 mm 0.45 m/s, 71° - -
1788592623 29.44° C 61% 1019.9 hPa 0 mm 0.45 m/s, 84° - -
1788592443 30° C 59% 1019.9 hPa 0 mm 0 m/s - -
1788592262 30.56° C 60% 1019.9 hPa 0 mm 0 m/s - -
1788592083 30.56° C 58% 1019.9 hPa 0 mm 0 m/s - -
1788591902 30° C 59% 1019.9 hPa 0 mm 0 m/s - -
1788591722 30° C 57% 1019.9 hPa 0 mm 0 m/s - -
1788591542 30° C 61% 1019.9 hPa 0 mm 0 m/s - -
1788591362 29.44° C 59% 1019.9 hPa 0 mm 0 m/s - -
1788591182 29.44° C 62% 1019.9 hPa 0 mm 0 m/s - -
1788591003 28.89° C 61% 1019.9 hPa 0 mm 0 m/s - -
1788590822 28.89° C 61% 1019.9 hPa 0 mm 0 m/s - -
1788590642 28.33° C 61% 1019.9 hPa 0 mm 0 m/s - -
1788590462 28.33° C 61% 1019.9 hPa 0 mm 0 m/s - -
1788590282 28.33° C 60% 1019.9 hPa 0 mm 0 m/s - -
1788590102 28.33° C 61% 1020.3 hPa 0 mm 0 m/s - -
1788589922 27.78° C 60% 1020.3 hPa 0 mm 0 m/s - -
1788589742 27.78° C 61% 1020.3 hPa 0 mm 0.45 m/s, 77° - -
1788589562 27.78° C 61% 1020.3 hPa 0 mm 0 m/s - -
1788589382 27.78° C 59% 1019.9 hPa 0 mm 0 m/s - -
1788589202 27.78° C 59% 1019.9 hPa 0 mm 0.45 m/s, 78° - -
1788589023 27.78° C 58% 1019.9 hPa 0 mm 0.45 m/s, 82° - -

* Rain latest hour (hover to see other rain measurements)
** Current wind speed in m/s (hover to see current wind gust speed)